Location: Songkhla
(7.2000°N, 100.6000°E)
Time: 08:59:02
(UTC+07:00)

SEEDS - Visible Passes

Search period start: 05 August 2021 00:00
Search period end: 15 August 2021 00:00
Orbit: 584 x 603 km, 97.6° (Epoch: 04 August)

Date Brightness Start Highest point End Pass type
(mag) Time Alt. Az. Time Alt. Az. Time Alt. Az.
05 Aug ? 04:33:28 10° NNE 04:37:34 67° E 04:39:03 37° S visible
06 Aug ? 04:42:27 10° N 04:46:35 87° W 04:48:10 37° SSW visible
07 Aug ? 04:51:32 10° N 04:55:35 62° WNW 04:57:16 33° SSW visible
08 Aug ? 05:00:41 10° N 05:04:36 44° WNW 05:06:23 27° SW visible
09 Aug ? 05:09:55 10° NNW 05:13:37 32° WNW 05:15:30 22° WSW visible
10 Aug ? 03:45:34 10° ENE 03:47:15 12° E 03:48:01 12° ESE visible
10 Aug ? 05:19:16 10° NNW 05:22:37 24° WNW 05:24:37 17° WSW visible
11 Aug ? 03:53:36 10° ENE 03:56:16 17° E 03:57:07 16° ESE visible
11 Aug ? 05:28:48 10° NNW 05:31:36 18° WNW 05:33:43 13° WSW visible
12 Aug ? 04:02:02 10° NE 04:05:17 22° E 04:06:15 21° ESE visible
12 Aug ? 05:38:36 10° NW 05:40:36 13° WNW 05:42:37 10° WSW visible
13 Aug ? 04:10:40 10° NE 04:14:18 30° E 04:15:21 26° SE visible
14 Aug ? 04:19:26 10° NNE 04:23:19 41° E 04:24:28 33° SE visible
